owner,sensor,date,latitude,longitude,vertical_datum,mass_concentration_of_oxygen_in_sea_water,qcFlag 
DISL,ioos:station:DISL:BSCA:1,2017-06-01T00:00:00Z,30.3288,-87.8293,2.091,1.41,1111122 
DISL,ioos:station:DISL:BSCA:1,2017-06-01T00:30:00Z,30.3288,-87.8293,2.05,2.55,1111122 
DISL,ioos:station:DISL:BSCA:1,2017-06-01T01:00:00Z,30.3288,-87.8293,2.019,2.71,1111122 
DISL,ioos:station:DISL:BSCA:1,2017-06-01T01:30:00Z,30.3288,-87.8293,1.975,3.36,1111122 
DISL,ioos:station:DISL:BSCA:1,2017-06-01T02:00:00Z,30.3288,-87.8293,1.957,3.46,1111122 
DISL,ioos:station:DISL:BSCA:1,2017-06-01T02:30:00Z,30.3288,-87.8293,1.934,3.85,1111122 
DISL,ioos:station:DISL:BSCA:1,2017-06-01T03:00:00Z,30.3288,-87.8293,1.923,4.03,1111122 
DISL,ioos:station:DISL:BSCA:1,2017-06-01T03:30:00Z,30.3288,-87.8293,1.905,2.88,1111122 
DISL,ioos:station:DISL:BSCA:1,2017-06-01T04:00:00Z,30.3288,-87.8293,1.891,1.85,1111122 
DISL,ioos:station:DISL:BSCA:1,2017-06-01T04:30:00Z,30.3288,-87.8293,1.857,2.78,1111122 
DISL,ioos:station:DISL:BSCA:1,2017-06-01T05:00:00Z,30.3288,-87.8293,1.841,1.93,1111122 
DISL,ioos:station:DISL:BSCA:1,2017-06-01T05:30:00Z,30.3288,-87.8293,1.82,1.97,1111122 
DISL,ioos:station:DISL:BSCA:1,2017-06-01T06:00:00Z,30.3288,-87.8293,1.8,2.9,1111122 
DISL,ioos:station:DISL:BSCA:1,2017-06-01T06:30:00Z,30.3288,-87.8293,1.802,2.11,1111122 
DISL,ioos:station:DISL:BSCA:1,2017-06-01T07:00:00Z,30.3288,-87.8293,1.773,2.58,1111122 
DISL,ioos:station:DISL:BSCA:1,2017-06-01T07:30:00Z,30.3288,-87.8293,1.785,2.81,1111122 
DISL,ioos:station:DISL:BSCA:1,2017-06-01T08:00:00Z,30.3288,-87.8293,1.782,3.08,1111122 
DISL,ioos:station:DISL:BSCA:1,2017-06-01T08:30:00Z,30.3288,-87.8293,1.791,2.1,1111122 
DISL,ioos:station:DISL:BSCA:1,2017-06-01T09:00:00Z,30.3288,-87.8293,1.802,2.91,1111122 
DISL,ioos:station:DISL:BSCA:1,2017-06-01T09:30:00Z,30.3288,-87.8293,1.804,2.78,1111122 
DISL,ioos:station:DISL:BSCA:1,2017-06-01T10:00:00Z,30.3288,-87.8293,1.796,1.21,1111122 
DISL,ioos:station:DISL:BSCA:1,2017-06-01T10:30:00Z,30.3288,-87.8293,1.804,2.25,1111122 
DISL,ioos:station:DISL:BSCA:1,2017-06-01T11:00:00Z,30.3288,-87.8293,1.806,3.77,1111122 
DISL,ioos:station:DISL:BSCA:1,2017-06-01T11:30:00Z,30.3288,-87.8293,1.843,2.94,1111122 
DISL,ioos:station:DISL:BSCA:1,2017-06-01T12:00:00Z,30.3288,-87.8293,1.867,2.15,1111122 
DISL,ioos:station:DISL:BSCA:1,2017-06-01T12:30:00Z,30.3288,-87.8293,1.907,1.86,1111122 
DISL,ioos:station:DISL:BSCA:1,2017-06-01T13:00:00Z,30.3288,-87.8293,1.933,1.17,1111122 
DISL,ioos:station:DISL:BSCA:1,2017-06-01T13:30:00Z,30.3288,-87.8293,1.95,1.2,1111122 
DISL,ioos:station:DISL:BSCA:1,2017-06-01T14:00:00Z,30.3288,-87.8293,1.956,0.77,1111122 
DISL,ioos:station:DISL:BSCA:1,2017-06-01T14:30:00Z,30.3288,-87.8293,1.99,1.38,1111122 
DISL,ioos:station:DISL:BSCA:1,2017-06-01T15:00:00Z,30.3288,-87.8293,2.006,1.57,1111122 
DISL,ioos:station:DISL:BSCA:1,2017-06-01T15:30:00Z,30.3288,-87.8293,2.02,1.52,1111122 
DISL,ioos:station:DISL:BSCA:1,2017-06-01T16:00:00Z,30.3288,-87.8293,2.033,2.57,1111122 
DISL,ioos:station:DISL:BSCA:1,2017-06-01T16:30:00Z,30.3288,-87.8293,2.048,3.47,1111122 
DISL,ioos:station:DISL:BSCA:1,2017-06-01T17:00:00Z,30.3288,-87.8293,2.066,2.94,1111122 
DISL,ioos:station:DISL:BSCA:1,2017-06-01T17:30:00Z,30.3288,-87.8293,2.069,1.8,1111122 
DISL,ioos:station:DISL:BSCA:1,2017-06-01T18:00:00Z,30.3288,-87.8293,2.088,0.95,1111122 
DISL,ioos:station:DISL:BSCA:1,2017-06-01T18:30:00Z,30.3288,-87.8293,2.083,1.12,1111122 
DISL,ioos:station:DISL:BSCA:1,2017-06-01T19:00:00Z,30.3288,-87.8293,2.086,0.79,1111122 
DISL,ioos:station:DISL:BSCA:1,2017-06-01T19:30:00Z,30.3288,-87.8293,2.081,0.65,1111122 
DISL,ioos:station:DISL:BSCA:1,2017-06-01T20:00:00Z,30.3288,-87.8293,2.052,0.71,1111122 
DISL,ioos:station:DISL:BSCA:1,2017-06-01T20:30:00Z,30.3288,-87.8293,2.043,0.6,1111122 
DISL,ioos:station:DISL:BSCA:1,2017-06-01T21:00:00Z,30.3288,-87.8293,2.017,0.69,1111122 
DISL,ioos:station:DISL:BSCA:1,2017-06-01T21:30:00Z,30.3288,-87.8293,2.02,0.59,1111122 
DISL,ioos:station:DISL:BSCA:1,2017-06-01T22:00:00Z,30.3288,-87.8293,2.011,0.53,1111122 
DISL,ioos:station:DISL:BSCA:1,2017-06-01T22:30:00Z,30.3288,-87.8293,2.006,0.8,1111122 
DISL,ioos:station:DISL:BSCA:1,2017-06-01T23:00:00Z,30.3288,-87.8293,1.998,1.15,1111122 
DISL,ioos:station:DISL:BSCA:1,2017-06-01T23:30:00Z,30.3288,-87.8293,1.987,1.07,1111122 
DISL,ioos:station:DISL:BSCA:1,2017-06-02T00:00:00Z,30.3288,-87.8293,1.979,1.21,1111122 
DISL,ioos:station:DISL:BSCA:1,2017-06-02T00:30:00Z,30.3288,-87.8293,1.971,1.18,1111122 
DISL,ioos:station:DISL:BSCA:1,2017-06-02T01:00:00Z,30.3288,-87.8293,1.964,1.44,1111122 
DISL,ioos:station:DISL:BSCA:1,2017-06-02T01:30:00Z,30.3288,-87.8293,1.959,0.78,1111122 
DISL,ioos:station:DISL:BSCA:1,2017-06-02T02:00:00Z,30.3288,-87.8293,1.951,2.3,1111122 
DISL,ioos:station:DISL:BSCA:1,2017-06-02T02:30:00Z,30.3288,-87.8293,1.935,2.68,1111122 
DISL,ioos:station:DISL:BSCA:1,2017-06-02T03:00:00Z,30.3288,-87.8293,1.942,0.66,1111122 
DISL,ioos:station:DISL:BSCA:1,2017-06-02T03:30:00Z,30.3288,-87.8293,1.925,1.16,1111122 
DISL,ioos:station:DISL:BSCA:1,2017-06-02T04:00:00Z,30.3288,-87.8293,1.925,1.26,1111122 
DISL,ioos:station:DISL:BSCA:1,2017-06-02T04:30:00Z,30.3288,-87.8293,1.909,0.74,1111122 
DISL,ioos:station:DISL:BSCA:1,2017-06-02T05:00:00Z,30.3288,-87.8293,1.894,0.62,1111122 
DISL,ioos:station:DISL:BSCA:1,2017-06-02T05:30:00Z,30.3288,-87.8293,1.877,1.09,1111122 
DISL,ioos:station:DISL:BSCA:1,2017-06-02T06:00:00Z,30.3288,-87.8293,1.857,0.95,1111122 
DISL,ioos:station:DISL:BSCA:1,2017-06-02T06:30:00Z,30.3288,-87.8293,1.84,0.75,1111122 
DISL,ioos:station:DISL:BSCA:1,2017-06-02T07:00:00Z,30.3288,-87.8293,1.834,0.69,1111122 
DISL,ioos:station:DISL:BSCA:1,2017-06-02T07:30:00Z,30.3288,-87.8293,1.834,1.03,1111122 
DISL,ioos:station:DISL:BSCA:1,2017-06-02T08:00:00Z,30.3288,-87.8293,1.861,0.63,1111122 
DISL,ioos:station:DISL:BSCA:1,2017-06-02T08:30:00Z,30.3288,-87.8293,1.874,0.65,1111122 
DISL,ioos:station:DISL:BSCA:1,2017-06-02T09:00:00Z,30.3288,-87.8293,1.898,0.52,1111122 
DISL,ioos:station:DISL:BSCA:1,2017-06-02T09:30:00Z,30.3288,-87.8293,1.918,0.52,1111122 
DISL,ioos:station:DISL:BSCA:1,2017-06-02T10:00:00Z,30.3288,-87.8293,1.933,0.52,1111122 
DISL,ioos:station:DISL:BSCA:1,2017-06-02T10:30:00Z,30.3288,-87.8293,1.954,0.6,1111122 
DISL,ioos:station:DISL:BSCA:1,2017-06-02T11:00:00Z,30.3288,-87.8293,1.966,0.57,1111122 
DISL,ioos:station:DISL:BSCA:1,2017-06-02T11:30:00Z,30.3288,-87.8293,1.976,0.54,1111122 
DISL,ioos:station:DISL:BSCA:1,2017-06-02T12:00:00Z,30.3288,-87.8293,1.994,0.55,1111122 
DISL,ioos:station:DISL:BSCA:1,2017-06-02T12:30:00Z,30.3288,-87.8293,2.012,0.63,1111122 
DISL,ioos:station:DISL:BSCA:1,2017-06-02T13:00:00Z,30.3288,-87.8293,2.032,0.73,1111122 
DISL,ioos:station:DISL:BSCA:1,2017-06-02T13:30:00Z,30.3288,-87.8293,2.04,0.58,1111122 
DISL,ioos:station:DISL:BSCA:1,2017-06-02T14:00:00Z,30.3288,-87.8293,2.055,0.63,1111122 
DISL,ioos:station:DISL:BSCA:1,2017-06-02T14:30:00Z,30.3288,-87.8293,2.063,0.54,1111122 
DISL,ioos:station:DISL:BSCA:1,2017-06-02T15:00:00Z,30.3288,-87.8293,2.067,0.55,1111122 
DISL,ioos:station:DISL:BSCA:1,2017-06-02T15:30:00Z,30.3288,-87.8293,2.063,0.55,1111122 
DISL,ioos:station:DISL:BSCA:1,2017-06-02T16:00:00Z,30.3288,-87.8293,2.062,0.66,1111122 
DISL,ioos:station:DISL:BSCA:1,2017-06-02T16:30:00Z,30.3288,-87.8293,2.056,0.58,1111122 
DISL,ioos:station:DISL:BSCA:1,2017-06-02T17:00:00Z,30.3288,-87.8293,2.049,1.07,1111122 
DISL,ioos:station:DISL:BSCA:1,2017-06-02T17:30:00Z,30.3288,-87.8293,2.041,1.51,1111122 
DISL,ioos:station:DISL:BSCA:1,2017-06-02T18:00:00Z,30.3288,-87.8293,2.043,1.74,1111122 
DISL,ioos:station:DISL:BSCA:1,2017-06-02T18:30:00Z,30.3288,-87.8293,2.014,1.79,1111122 
DISL,ioos:station:DISL:BSCA:1,2017-06-02T19:00:00Z,30.3288,-87.8293,2.008,2.51,1111122 
DISL,ioos:station:DISL:BSCA:1,2017-06-02T19:30:00Z,30.3288,-87.8293,2.007,5.4,1111122 
DISL,ioos:station:DISL:BSCA:1,2017-06-02T20:00:00Z,30.3288,-87.8293,2.0,5.49,1111122 
DISL,ioos:station:DISL:BSCA:1,2017-06-02T20:30:00Z,30.3288,-87.8293,2.001,7.2,1111122 
DISL,ioos:station:DISL:BSCA:1,2017-06-02T21:00:00Z,30.3288,-87.8293,2.005,7.3,1111122 
DISL,ioos:station:DISL:BSCA:1,2017-06-02T21:30:00Z,30.3288,-87.8293,2.014,7.26,1111122 
DISL,ioos:station:DISL:BSCA:1,2017-06-02T22:00:00Z,30.3288,-87.8293,2.004,6.78,1111122 
DISL,ioos:station:DISL:BSCA:1,2017-06-02T22:30:00Z,30.3288,-87.8293,2.015,7.81,1111122 
DISL,ioos:station:DISL:BSCA:1,2017-06-02T23:00:00Z,30.3288,-87.8293,2.015,7.22,1111122 
DISL,ioos:station:DISL:BSCA:1,2017-06-02T23:30:00Z,30.3288,-87.8293,2.04,7.66,1111122 
DISL,ioos:station:DISL:BSCA:1,2017-06-03T00:00:00Z,30.3288,-87.8293,2.041,7.31,1111122 
DISL,ioos:station:DISL:BSCA:1,2017-06-03T00:30:00Z,30.3288,-87.8293,2.035,7.76,1111122 
DISL,ioos:station:DISL:BSCA:1,2017-06-03T01:00:00Z,30.3288,-87.8293,2.031,7.08,1111122 
DISL,ioos:station:DISL:BSCA:1,2017-06-03T01:30:00Z,30.3288,-87.8293,2.023,8.05,1111122 
DISL,ioos:station:DISL:BSCA:1,2017-06-03T02:00:00Z,30.3288,-87.8293,2.008,7.91,1111122 
DISL,ioos:station:DISL:BSCA:1,2017-06-03T02:30:00Z,30.3288,-87.8293,2.003,7.16,1111122 
DISL,ioos:station:DISL:BSCA:1,2017-06-03T03:00:00Z,30.3288,-87.8293,1.992,7.17,1111122 
DISL,ioos:station:DISL:BSCA:1,2017-06-03T03:30:00Z,30.3288,-87.8293,1.978,8.15,1111122 
DISL,ioos:station:DISL:BSCA:1,2017-06-03T04:00:00Z,30.3288,-87.8293,1.958,7.95,1111122 
DISL,ioos:station:DISL:BSCA:1,2017-06-03T04:30:00Z,30.3288,-87.8293,1.944,8.12,1111122 
DISL,ioos:station:DISL:BSCA:1,2017-06-03T05:00:00Z,30.3288,-87.8293,1.921,8.14,1111122 
DISL,ioos:station:DISL:BSCA:1,2017-06-03T05:30:00Z,30.3288,-87.8293,1.914,8.54,1111122 
DISL,ioos:station:DISL:BSCA:1,2017-06-03T06:00:00Z,30.3288,-87.8293,1.892,8.83,1111122 
DISL,ioos:station:DISL:BSCA:1,2017-06-03T06:30:00Z,30.3288,-87.8293,1.879,7.64,1111122 
DISL,ioos:station:DISL:BSCA:1,2017-06-03T07:00:00Z,30.3288,-87.8293,1.885,8.29,1111122 
DISL,ioos:station:DISL:BSCA:1,2017-06-03T07:30:00Z,30.3288,-87.8293,1.9,7.85,1111122 
DISL,ioos:station:DISL:BSCA:1,2017-06-03T08:00:00Z,30.3288,-87.8293,1.909,8.19,1111122 
DISL,ioos:station:DISL:BSCA:1,2017-06-03T08:30:00Z,30.3288,-87.8293,1.938,7.59,1111122 
DISL,ioos:station:DISL:BSCA:1,2017-06-03T09:00:00Z,30.3288,-87.8293,1.961,8.19,1111122 
DISL,ioos:station:DISL:BSCA:1,2017-06-03T09:30:00Z,30.3288,-87.8293,1.996,6.98,1111122 
DISL,ioos:station:DISL:BSCA:1,2017-06-03T10:00:00Z,30.3288,-87.8293,2.023,7.58,1111122 
DISL,ioos:station:DISL:BSCA:1,2017-06-03T10:30:00Z,30.3288,-87.8293,2.053,6.54,1111122 
DISL,ioos:station:DISL:BSCA:1,2017-06-03T11:00:00Z,30.3288,-87.8293,2.066,6.67,1111122 
DISL,ioos:station:DISL:BSCA:1,2017-06-03T11:30:00Z,30.3288,-87.8293,2.063,5.99,1111122 
DISL,ioos:station:DISL:BSCA:1,2017-06-03T12:00:00Z,30.3288,-87.8293,2.055,7.44,1111122 
DISL,ioos:station:DISL:BSCA:1,2017-06-03T12:30:00Z,30.3288,-87.8293,2.07,7.73,1111122 
DISL,ioos:station:DISL:BSCA:1,2017-06-03T13:00:00Z,30.3288,-87.8293,2.085,7.3,1111122 
DISL,ioos:station:DISL:BSCA:1,2017-06-03T13:30:00Z,30.3288,-87.8293,2.113,6.49,1111122 
DISL,ioos:station:DISL:BSCA:1,2017-06-03T14:00:00Z,30.3288,-87.8293,2.121,6.76,1111122 
DISL,ioos:station:DISL:BSCA:1,2017-06-03T14:30:00Z,30.3288,-87.8293,2.125,7.09,1111122 
DISL,ioos:station:DISL:BSCA:1,2017-06-03T15:00:00Z,30.3288,-87.8293,2.126,6.99,1111122 
DISL,ioos:station:DISL:BSCA:1,2017-06-03T15:30:00Z,30.3288,-87.8293,2.115,6.8,1111122 
DISL,ioos:station:DISL:BSCA:1,2017-06-03T16:00:00Z,30.3288,-87.8293,2.098,7.72,1111122 
DISL,ioos:station:DISL:BSCA:1,2017-06-03T16:30:00Z,30.3288,-87.8293,2.086,7.52,1111122 
DISL,ioos:station:DISL:BSCA:1,2017-06-03T17:00:00Z,30.3288,-87.8293,2.06,7.98,1111122 
DISL,ioos:station:DISL:BSCA:1,2017-06-03T17:30:00Z,30.3288,-87.8293,2.041,7.52,1111122 
DISL,ioos:station:DISL:BSCA:1,2017-06-03T18:00:00Z,30.3288,-87.8293,2.019,8.0,1111122 
DISL,ioos:station:DISL:BSCA:1,2017-06-03T18:30:00Z,30.3288,-87.8293,1.999,8.05,1111122 
DISL,ioos:station:DISL:BSCA:1,2017-06-03T19:00:00Z,30.3288,-87.8293,1.989,7.6,1111122 
DISL,ioos:station:DISL:BSCA:1,2017-06-03T19:30:00Z,30.3288,-87.8293,1.969,8.13,1111122 
DISL,ioos:station:DISL:BSCA:1,2017-06-03T20:00:00Z,30.3288,-87.8293,1.959,8.43,1111122 
DISL,ioos:station:DISL:BSCA:1,2017-06-03T20:30:00Z,30.3288,-87.8293,1.939,8.46,1111122 
DISL,ioos:station:DISL:BSCA:1,2017-06-03T21:00:00Z,30.3288,-87.8293,1.93,7.25,1111122 
DISL,ioos:station:DISL:BSCA:1,2017-06-03T21:30:00Z,30.3288,-87.8293,1.92,8.04,1111122 
DISL,ioos:station:DISL:BSCA:1,2017-06-03T22:00:00Z,30.3288,-87.8293,1.91,7.76,1111122 
DISL,ioos:station:DISL:BSCA:1,2017-06-03T22:30:00Z,30.3288,-87.8293,1.913,8.2,1111122 
DISL,ioos:station:DISL:BSCA:1,2017-06-03T23:00:00Z,30.3288,-87.8293,1.917,7.18,1111122 
DISL,ioos:station:DISL:BSCA:1,2017-06-03T23:30:00Z,30.3288,-87.8293,1.917,6.22,1111122 
DISL,ioos:station:DISL:BSCA:1,2017-06-04T00:00:00Z,30.3288,-87.8293,1.909,5.57,1111122 
DISL,ioos:station:DISL:BSCA:1,2017-06-04T00:30:00Z,30.3288,-87.8293,1.884,5.25,1111122 
DISL,ioos:station:DISL:BSCA:1,2017-06-04T01:00:00Z,30.3288,-87.8293,1.889,3.54,1111122 
DISL,ioos:station:DISL:BSCA:1,2017-06-04T01:30:00Z,30.3288,-87.8293,1.915,6.34,1111122 
DISL,ioos:station:DISL:BSCA:1,2017-06-04T02:00:00Z,30.3288,-87.8293,1.89,5.04,1111122 
DISL,ioos:station:DISL:BSCA:1,2017-06-04T02:30:00Z,30.3288,-87.8293,1.863,6.5,1111122 
DISL,ioos:station:DISL:BSCA:1,2017-06-04T03:00:00Z,30.3288,-87.8293,1.834,4.54,1111122 
DISL,ioos:station:DISL:BSCA:1,2017-06-04T03:30:00Z,30.3288,-87.8293,1.838,4.9,1111122 
DISL,ioos:station:DISL:BSCA:1,2017-06-04T04:00:00Z,30.3288,-87.8293,1.83,5.93,1111122 
DISL,ioos:station:DISL:BSCA:1,2017-06-04T04:30:00Z,30.3288,-87.8293,1.859,5.47,1111122 
DISL,ioos:station:DISL:BSCA:1,2017-06-04T05:00:00Z,30.3288,-87.8293,1.883,4.48,1111122 
DISL,ioos:station:DISL:BSCA:1,2017-06-04T05:30:00Z,30.3288,-87.8293,1.916,6.06,1111122 
DISL,ioos:station:DISL:BSCA:1,2017-06-04T06:00:00Z,30.3288,-87.8293,1.928,5.57,1111122 
DISL,ioos:station:DISL:BSCA:1,2017-06-04T06:30:00Z,30.3288,-87.8293,1.945,6.03,1111122 
DISL,ioos:station:DISL:BSCA:1,2017-06-04T07:00:00Z,30.3288,-87.8293,1.962,5.09,1111122 
DISL,ioos:station:DISL:BSCA:1,2017-06-04T07:30:00Z,30.3288,-87.8293,1.98,5.82,1111122 
DISL,ioos:station:DISL:BSCA:1,2017-06-04T08:00:00Z,30.3288,-87.8293,2.008,4.49,1111122 
DISL,ioos:station:DISL:BSCA:1,2017-06-04T08:30:00Z,30.3288,-87.8293,2.039,6.61,1111122 
DISL,ioos:station:DISL:BSCA:1,2017-06-04T09:00:00Z,30.3288,-87.8293,2.068,4.95,1111122 
DISL,ioos:station:DISL:BSCA:1,2017-06-04T09:30:00Z,30.3288,-87.8293,2.086,4.36,1111122 
DISL,ioos:station:DISL:BSCA:1,2017-06-04T10:00:00Z,30.3288,-87.8293,2.095,2.2,1111122 
DISL,ioos:station:DISL:BSCA:1,2017-06-04T10:30:00Z,30.3288,-87.8293,2.107,4.22,1111122 
DISL,ioos:station:DISL:BSCA:1,2017-06-04T11:00:00Z,30.3288,-87.8293,2.115,4.28,1111122 
DISL,ioos:station:DISL:BSCA:1,2017-06-04T11:30:00Z,30.3288,-87.8293,2.122,3.42,1111122 
DISL,ioos:station:DISL:BSCA:1,2017-06-04T12:00:00Z,30.3288,-87.8293,2.125,3.65,1111122 
DISL,ioos:station:DISL:BSCA:1,2017-06-04T12:30:00Z,30.3288,-87.8293,2.111,2.01,1111122 
DISL,ioos:station:DISL:BSCA:1,2017-06-04T13:00:00Z,30.3288,-87.8293,2.105,1.55,1111122 
DISL,ioos:station:DISL:BSCA:1,2017-06-04T13:30:00Z,30.3288,-87.8293,2.091,2.07,1111122 
DISL,ioos:station:DISL:BSCA:1,2017-06-04T14:00:00Z,30.3288,-87.8293,2.119,4.73,1111122 
DISL,ioos:station:DISL:BSCA:1,2017-06-04T14:30:00Z,30.3288,-87.8293,2.113,5.0,1111122 
DISL,ioos:station:DISL:BSCA:1,2017-06-04T15:00:00Z,30.3288,-87.8293,2.124,5.09,1111122 
DISL,ioos:station:DISL:BSCA:1,2017-06-04T15:30:00Z,30.3288,-87.8293,2.126,3.78,1111122 
DISL,ioos:station:DISL:BSCA:1,2017-06-04T16:00:00Z,30.3288,-87.8293,2.117,4.43,1111122 
DISL,ioos:station:DISL:BSCA:1,2017-06-04T16:30:00Z,30.3288,-87.8293,2.103,4.74,1111122 
DISL,ioos:station:DISL:BSCA:1,2017-06-04T17:00:00Z,30.3288,-87.8293,2.083,4.88,1111122 
DISL,ioos:station:DISL:BSCA:1,2017-06-04T17:30:00Z,30.3288,-87.8293,2.059,5.65,1111122 
DISL,ioos:station:DISL:BSCA:1,2017-06-04T18:00:00Z,30.3288,-87.8293,2.031,6.89,1111122 
DISL,ioos:station:DISL:BSCA:1,2017-06-04T18:30:00Z,30.3288,-87.8293,2.004,5.25,1111122 
DISL,ioos:station:DISL:BSCA:1,2017-06-04T19:00:00Z,30.3288,-87.8293,1.985,6.97,1111122 
DISL,ioos:station:DISL:BSCA:1,2017-06-04T19:30:00Z,30.3288,-87.8293,1.984,7.17,1111122 
DISL,ioos:station:DISL:BSCA:1,2017-06-04T20:00:00Z,30.3288,-87.8293,1.982,6.68,1111122 
DISL,ioos:station:DISL:BSCA:1,2017-06-04T20:30:00Z,30.3288,-87.8293,1.988,5.07,1111122 
DISL,ioos:station:DISL:BSCA:1,2017-06-04T21:00:00Z,30.3288,-87.8293,1.982,7.09,1111122 
DISL,ioos:station:DISL:BSCA:1,2017-06-04T21:30:00Z,30.3288,-87.8293,1.971,7.09,1111122 
DISL,ioos:station:DISL:BSCA:1,2017-06-04T22:00:00Z,30.3288,-87.8293,1.969,7.57,1111122 
DISL,ioos:station:DISL:BSCA:1,2017-06-04T22:30:00Z,30.3288,-87.8293,1.964,6.08,1111122 
DISL,ioos:station:DISL:BSCA:1,2017-06-04T23:00:00Z,30.3288,-87.8293,1.974,7.17,1111122 
DISL,ioos:station:DISL:BSCA:1,2017-06-04T23:30:00Z,30.3288,-87.8293,1.98,6.79,1111122 
DISL,ioos:station:DISL:BSCA:1,2017-06-05T00:00:00Z,30.3288,-87.8293,1.974,6.34,1111122 
DISL,ioos:station:DISL:BSCA:1,2017-06-05T00:30:00Z,30.3288,-87.8293,1.959,5.83,1111122 
DISL,ioos:station:DISL:BSCA:1,2017-06-05T01:00:00Z,30.3288,-87.8293,1.946,7.17,1111122 
DISL,ioos:station:DISL:BSCA:1,2017-06-05T01:30:00Z,30.3288,-87.8293,1.944,6.29,1111122 
DISL,ioos:station:DISL:BSCA:1,2017-06-05T02:00:00Z,30.3288,-87.8293,1.942,6.93,1111122 
DISL,ioos:station:DISL:BSCA:1,2017-06-05T02:30:00Z,30.3288,-87.8293,1.95,5.8,1111122 
DISL,ioos:station:DISL:BSCA:1,2017-06-05T03:00:00Z,30.3288,-87.8293,1.964,6.79,1111122 
DISL,ioos:station:DISL:BSCA:1,2017-06-05T03:30:00Z,30.3288,-87.8293,1.978,6.83,1111122 
DISL,ioos:station:DISL:BSCA:1,2017-06-05T04:00:00Z,30.3288,-87.8293,1.989,6.22,1111122 
DISL,ioos:station:DISL:BSCA:1,2017-06-05T04:30:00Z,30.3288,-87.8293,2.011,6.67,1111122 
DISL,ioos:station:DISL:BSCA:1,2017-06-05T05:00:00Z,30.3288,-87.8293,2.021,6.88,1111122 
DISL,ioos:station:DISL:BSCA:1,2017-06-05T05:30:00Z,30.3288,-87.8293,2.044,7.17,1111122 
DISL,ioos:station:DISL:BSCA:1,2017-06-05T06:00:00Z,30.3288,-87.8293,2.054,6.42,1111122 
DISL,ioos:station:DISL:BSCA:1,2017-06-05T06:30:00Z,30.3288,-87.8293,2.06,7.63,1111122 
DISL,ioos:station:DISL:BSCA:1,2017-06-05T07:00:00Z,30.3288,-87.8293,2.081,7.45,1111122 
DISL,ioos:station:DISL:BSCA:1,2017-06-05T07:30:00Z,30.3288,-87.8293,2.091,7.59,1111122 
DISL,ioos:station:DISL:BSCA:1,2017-06-05T08:00:00Z,30.3288,-87.8293,2.111,6.81,1111122 
DISL,ioos:station:DISL:BSCA:1,2017-06-05T08:30:00Z,30.3288,-87.8293,2.129,7.91,1111122 
DISL,ioos:station:DISL:BSCA:1,2017-06-05T09:00:00Z,30.3288,-87.8293,2.158,8.03,1111122 
DISL,ioos:station:DISL:BSCA:1,2017-06-05T09:30:00Z,30.3288,-87.8293,2.185,7.89,1111122 
DISL,ioos:station:DISL:BSCA:1,2017-06-05T10:00:00Z,30.3288,-87.8293,2.212,6.7,1111122 
DISL,ioos:station:DISL:BSCA:1,2017-06-05T10:30:00Z,30.3288,-87.8293,2.233,7.54,1111122 
DISL,ioos:station:DISL:BSCA:1,2017-06-05T11:00:00Z,30.3288,-87.8293,2.252,7.3,1111122 
DISL,ioos:station:DISL:BSCA:1,2017-06-05T11:30:00Z,30.3288,-87.8293,2.282,7.31,1111122 
DISL,ioos:station:DISL:BSCA:1,2017-06-05T12:00:00Z,30.3288,-87.8293,2.267,5.57,1111122 
DISL,ioos:station:DISL:BSCA:1,2017-06-05T12:30:00Z,30.3288,-87.8293,2.274,5.19,1111122 
DISL,ioos:station:DISL:BSCA:1,2017-06-05T13:00:00Z,30.3288,-87.8293,2.25,5.72,1111122 
DISL,ioos:station:DISL:BSCA:1,2017-06-05T13:30:00Z,30.3288,-87.8293,2.231,5.88,1111122 
DISL,ioos:station:DISL:BSCA:1,2017-06-05T14:00:00Z,30.3288,-87.8293,2.21,4.45,1111122 
DISL,ioos:station:DISL:BSCA:1,2017-06-05T14:30:00Z,30.3288,-87.8293,2.184,7.0,1111122 
DISL,ioos:station:DISL:BSCA:1,2017-06-05T15:00:00Z,30.3288,-87.8293,2.18,7.98,1111122 
DISL,ioos:station:DISL:BSCA:1,2017-06-05T15:30:00Z,30.3288,-87.8293,2.162,8.21,1111122 
DISL,ioos:station:DISL:BSCA:1,2017-06-05T16:00:00Z,30.3288,-87.8293,2.166,7.48,1111122 
DISL,ioos:station:DISL:BSCA:1,2017-06-05T16:30:00Z,30.3288,-87.8293,2.153,8.28,1111122 
DISL,ioos:station:DISL:BSCA:1,2017-06-05T17:00:00Z,30.3288,-87.8293,2.152,8.21,1111122 
DISL,ioos:station:DISL:BSCA:1,2017-06-05T17:30:00Z,30.3288,-87.8293,2.122,8.42,1111122 
DISL,ioos:station:DISL:BSCA:1,2017-06-05T18:00:00Z,30.3288,-87.8293,2.124,7.71,1111122 
DISL,ioos:station:DISL:BSCA:1,2017-06-05T18:30:00Z,30.3288,-87.8293,2.105,8.42,1111122 
DISL,ioos:station:DISL:BSCA:1,2017-06-05T19:00:00Z,30.3288,-87.8293,2.089,8.63,1111122 
DISL,ioos:station:DISL:BSCA:1,2017-06-05T19:30:00Z,30.3288,-87.8293,2.059,8.5,1111122 
DISL,ioos:station:DISL:BSCA:1,2017-06-05T20:00:00Z,30.3288,-87.8293,2.049,7.68,1111122 
DISL,ioos:station:DISL:BSCA:1,2017-06-05T20:30:00Z,30.3288,-87.8293,2.012,8.9,1111122 
DISL,ioos:station:DISL:BSCA:1,2017-06-05T21:30:00Z,30.3288,-87.8293,1.992,8.78,1111122 
DISL,ioos:station:DISL:BSCA:1,2017-06-05T22:00:00Z,30.3288,-87.8293,1.98,8.16,1111122 
DISL,ioos:station:DISL:BSCA:1,2017-06-05T22:30:00Z,30.3288,-87.8293,1.967,8.64,1111122 
DISL,ioos:station:DISL:BSCA:1,2017-06-05T23:00:00Z,30.3288,-87.8293,1.979,9.12,1111122 
DISL,ioos:station:DISL:BSCA:1,2017-06-05T23:30:00Z,30.3288,-87.8293,1.999,9.1,1111122 
DISL,ioos:station:DISL:BSCA:1,2017-06-06T00:00:00Z,30.3288,-87.8293,1.983,7.94,1111122 
DISL,ioos:station:DISL:BSCA:1,2017-06-06T00:30:00Z,30.3288,-87.8293,1.973,7.69,1111122 
DISL,ioos:station:DISL:BSCA:1,2017-06-06T01:00:00Z,30.3288,-87.8293,1.989,7.55,1111122 
DISL,ioos:station:DISL:BSCA:1,2017-06-06T01:30:00Z,30.3288,-87.8293,1.995,7.9,1111122 
DISL,ioos:station:DISL:BSCA:1,2017-06-06T02:00:00Z,30.3288,-87.8293,1.991,6.65,1111122 
DISL,ioos:station:DISL:BSCA:1,2017-06-06T02:30:00Z,30.3288,-87.8293,1.983,8.09,1111122 
DISL,ioos:station:DISL:BSCA:1,2017-06-06T03:00:00Z,30.3288,-87.8293,1.974,7.25,1111122 
DISL,ioos:station:DISL:BSCA:1,2017-06-06T03:30:00Z,30.3288,-87.8293,1.967,7.87,1111122 
DISL,ioos:station:DISL:BSCA:1,2017-06-06T04:00:00Z,30.3288,-87.8293,1.982,6.61,1111122 
DISL,ioos:station:DISL:BSCA:1,2017-06-06T04:30:00Z,30.3288,-87.8293,1.989,6.76,1111122 
DISL,ioos:station:DISL:BSCA:1,2017-06-06T05:30:00Z,30.3288,-87.8293,2.04,6.72,1111122 
DISL,ioos:station:DISL:BSCA:1,2017-06-06T06:00:00Z,30.3288,-87.8293,2.071,5.81,1111122 
DISL,ioos:station:DISL:BSCA:1,2017-06-06T06:30:00Z,30.3288,-87.8293,2.098,7.23,1111122 
DISL,ioos:station:DISL:BSCA:1,2017-06-06T07:00:00Z,30.3288,-87.8293,2.109,6.1,1111122 
DISL,ioos:station:DISL:BSCA:1,2017-06-06T07:30:00Z,30.3288,-87.8293,2.176,7.69,1111122 
DISL,ioos:station:DISL:BSCA:1,2017-06-06T08:00:00Z,30.3288,-87.8293,2.148,7.33,1111122 
DISL,ioos:station:DISL:BSCA:1,2017-06-06T08:30:00Z,30.3288,-87.8293,2.114,7.43,1111122 
DISL,ioos:station:DISL:BSCA:1,2017-06-06T09:00:00Z,30.3288,-87.8293,2.082,6.36,1111122 
DISL,ioos:station:DISL:BSCA:1,2017-06-06T09:30:00Z,30.3288,-87.8293,2.122,6.32,1111122 
DISL,ioos:station:DISL:BSCA:1,2017-06-06T10:00:00Z,30.3288,-87.8293,2.162,5.7,1111122 
DISL,ioos:station:DISL:BSCA:1,2017-06-06T10:30:00Z,30.3288,-87.8293,2.24,6.34,1111122 
DISL,ioos:station:DISL:BSCA:1,2017-06-06T11:00:00Z,30.3288,-87.8293,2.274,4.76,1111122 
DISL,ioos:station:DISL:BSCA:1,2017-06-06T11:30:00Z,30.3288,-87.8293,2.313,5.35,1111122 
DISL,ioos:station:DISL:BSCA:1,2017-06-06T12:00:00Z,30.3288,-87.8293,2.324,4.11,1111122 
DISL,ioos:station:DISL:BSCA:1,2017-06-06T12:30:00Z,30.3288,-87.8293,2.329,4.23,1111122 
DISL,ioos:station:DISL:BSCA:1,2017-06-06T13:00:00Z,30.3288,-87.8293,2.322,2.72,1111122 
DISL,ioos:station:DISL:BSCA:1,2017-06-06T13:30:00Z,30.3288,-87.8293,2.325,5.84,1111122 
DISL,ioos:station:DISL:BSCA:1,2017-06-06T14:00:00Z,30.3288,-87.8293,2.335,5.73,1111122 
DISL,ioos:station:DISL:BSCA:1,2017-06-06T14:30:00Z,30.3288,-87.8293,2.313,6.16,1111122 
DISL,ioos:station:DISL:BSCA:1,2017-06-06T15:00:00Z,30.3288,-87.8293,2.313,3.78,1111122 
DISL,ioos:station:DISL:BSCA:1,2017-06-06T15:30:00Z,30.3288,-87.8293,2.302,5.25,1111122 
DISL,ioos:station:DISL:BSCA:1,2017-06-06T16:00:00Z,30.3288,-87.8293,2.323,6.1,1111122 
DISL,ioos:station:DISL:BSCA:1,2017-06-06T16:30:00Z,30.3288,-87.8293,2.32,5.74,1111122 